Weather in Mytishchi

Russia / Ivanovo Oblast     57°04′59″N   40°13′47″E
temp.,
°C
wind,
m/s
gust,
m/s
humid.,
%
clouds,
%
prec.,
mm/h
press.,
hPa
HPBL,
m
9 december, thu
thu900:00−14nne3793100 0.0 1024174
03:00−12nne3690100 0.0 1024210
06:00−11n3990100 0.1 1024258
09:00−11n389028 0.1 1025254
12:00−11n37875 0.0 1026228
15:00−12n38915 0.0 1027233
18:00−14n279513 0.0 1029142
21:00−15n259615 0.0 1031122
10 december, fri
fri1000:00−16nne259614 0.0 103289
03:00−16ne25965 0.0 1033100
06:00−16ne23975 0.0 103473
09:00−16ne25976 0.0 103597
12:00−12e24855 0.0 1036182
15:00−12ese27905 0.0 1036188
18:00−14e28945 0.0 1037179
21:00−14ese310935 0.0 1037218
11 december, sat
sat1100:00−14ese311905 0.0 1038244
03:00−14ese311895 0.0 1038227
06:00−14ese311895 0.0 1038224
09:00−14ese312885 0.0 1039231
12:00−11ese311805 0.0 1039264
15:00−10ese311825 0.0 1038279
18:00−11ese311855 0.0 1039249
21:00−11se4138311 0.0 1039263
12 december, sun
sun1200:00−11se3128218 0.0 1039253
03:00−12se310865 0.0 1039219
06:00−12se412865 0.0 1039223
09:00−12se3118875 0.0 1039212
12:00−9sse31180100 0.0 1038278
15:00−9se398563 0.0 1038209
18:00−11sse289370 0.0 1038154
21:00−10sse399262 0.0 1038190
13 december, mon
mon1300:00−11sse29935 0.0 1038168
03:00−11sse28935 0.0 1037147
06:00−11sse399114 0.0 1036153
09:00−11sse31086100 0.0 1036168
12:00−7sse31078100 0.0 1035256
15:00−7sse31080100 0.0 1034279
18:00−7sse31183100 0.0 1033276
21:00−6sse31182100 0.0 1032284